This demonstration page uses our WeatherBlox Daily Observations layout. Learn more.

38.89511, -77.03637

Hourly Observations for December 10, 2018

Temp ( °F °C ) Dew Point ( °F °C ) Humidity (%) Winds ( mph kmh ) Pressure ( in mb ) Visibility ( mi km ) Precip ( " mm )
12:52 am 00:52 Cloudy 33 0.6 18 -7.8 54 54 NNE 13 20 30.09 1019 10 16.09344 0 0
1:52 am 01:52 Cloudy 32 0 18 -7.8 56 56 N 10 17 30.09 1019 10 16.09344 0 0
2:52 am 02:52 Mostly Cloudy 32 0 17 -8.3 54 54 N 9 15 30.09 1019 10 16.09344 0 0
3:52 am 03:52 Mostly Cloudy 32 0 17 -8.3 54 54 N 12 19 30.09 1019 10 16.09344 0 0
4:52 am 04:52 Mostly Cloudy 33 0.6 17 -8.3 52 52 N 10 17 30.09 1019 10 16.09344 0 0
5:52 am 05:52 Mostly Cloudy 32 0 17 -8.3 54 54 N 10 17 30.12 1020 10 16.09344 0 0
6:52 am 06:52 Mostly Cloudy 30 -1.1 17 -8.3 58 58 N 13 20 30.12 1020 10 16.09344 0 0
7:52 am 07:52 Mostly Cloudy 32 0 18 -7.8 56 56 N 15 24 30.15 1021 10 16.09344 0 0
8:52 am 08:52 Mostly Cloudy 32 0 17 -8.3 54 54 N 14 22 30.18 1022 10 16.09344 0 0
9:52 am 09:52 Mostly Cloudy 33 0.6 19 -7.2 56 56 N 10 17 30.21 1023 10 16.09344 0 0
10:52 am 10:52 Mostly Cloudy 35 1.7 20 -6.7 54 54 N 10 17 30.18 1022 10 16.09344 0 0
11:52 am 11:52 Cloudy 36 2.2 20 -6.7 52 52 N 13 20 30.15 1021 10 16.09344 0 0
12:52 pm 12:52 Cloudy 39 3.9 21 -6.1 48 48 NNW 12 19 30.12 1020 10 16.09344 0 0
1:52 pm 13:52 Cloudy 39 3.9 22 -5.6 50 50 N 12 19 30.12 1020 10 16.09344 0 0
2:52 pm 14:52 Mostly Cloudy 41 5 23 -5 49 49 NNE 9 15 30.12 1020 10 16.09344 0 0
3:52 pm 15:52 Mostly Cloudy 40 4.4 23 -5 51 51 N 10 17 30.12 1020 10 16.09344 0 0
4:52 pm 16:52 Mostly Cloudy 37 2.8 23 -5 57 57 N 14 22 30.15 1021 10 16.09344 0 0
5:52 pm 17:52 Partly Cloudy 36 2.2 23 -5 59 59 N 10 17 30.15 1021 10 16.09344 0 0
6:52 pm 18:52 Mostly Clear 37 2.8 23 -5 57 57 NNE 10 17 30.18 1022 10 16.09344 0 0
7:52 pm 19:52 Mostly Clear 36 2.2 23 -5 59 59 NNE 12 19 30.18 1022 10 16.09344 0 0
8:52 pm 20:52 Mostly Clear 34 1.1 23 -5 64 64 NNE 7 11 30.21 1023 10 16.09344 0 0
9:52 pm 21:52 Mostly Clear 33 0.6 22 -5.6 64 64 NNW 9 15 30.18 1022 10 16.09344 0 0
10:52 pm 22:52 Partly Cloudy 31 -0.6 22 -5.6 69 69 NNW 5 7 30.21 1023 10 16.09344 0 0
11:52 pm 23:52 Partly Cloudy 31 -0.6 22 -5.6 69 69 N 6 9 30.21 1023 10 16.09344 0 0

Powered by AerisWeather